Ames, IA

2:39 AM CDT on August 19, 2017 (GMT -0500)
Ames Municipal

Weather History for KAMW - April, 2014

Change the Weather History Date:

Saturday, April 26, 2014

  Actual Average Record
Temperature  
Mean Temperature 57 °F 53 °F  
Max Temperature 70 °F 65 °F 86 °F (2001)
Min Temperature 44 °F 42 °F 30 °F (2006)
Degree Days  
Heating Degree Days 8 12  
Month to date heating degree days 450 424  
Since 1 July heating degree days 7367 6580  
Cooling Degree Days 0 0  
Month to date cooling degree days 7 0  
Year to date cooling degree days 7 0  
Growing Degree Days 8 (Base 50)    
Moisture  
Dew Point 41 °F    
Average Humidity 57    
Maximum Humidity 76    
Minimum Humidity 37    
Precipitation  
Precipitation T in 0.13 in 0.67 in (1979)
Month to date precipitation 4.47 2.81  
Sea Level Pressure  
Sea Level Pressure 29.78 in    
Wind  
Wind Speed 15 mph (East)    
Max Wind Speed 29 mph    
Max Gust Speed 39 mph    
Visibility 10 miles    
Events      
T = Trace of Precipitation, MM = Missing Value Source: NWS Daily Summary

Daily Weather History Graph

Daily Weather History Graph

Search for Another Location

Airport or City:

Trip Planner

Search our weather history database for the weather conditions in past years. The results will help you decide how hot, cold, wet, or windy it might be!

Date:

Astronomy

Apr. 26, 2014 Rise Set
Actual Time 6:17 AM CDT 8:07 PM CDT
Civil Twilight 5:47 AM CDT 8:37 PM CDT
Nautical Twilight 5:11 AM CDT 9:14 PM CDT
Astronomical Twilight 4:31 AM CDT 9:53 PM CDT
Moon 4:44 AM CDT (4/26) 5:34 PM CDT (4/26)
Length of Visible Light 14h 50m
Length of Day
13h 50m
Waning Crescent, 8% of the Moon is Illuminated
Apr 26
Waning Crescent
Apr 29
New
May 6
First Quarter
May 14
Full
May 21
Last Quarter

Hourly Weather History & Observations

Time (CDT) Temp. Windchill Dew Point Humidity Pressure Visibility Wind Dir Wind Speed Gust Speed Precip Events Conditions
12:53 AM 52.0 °F - 39.0 °F 61% 29.82 in 10.0 mi East 4.6 mph - N/A   Clear
1:53 AM 53.1 °F - 39.0 °F 59% 29.81 in 10.0 mi East 6.9 mph - N/A   Clear
2:53 AM 51.1 °F - 37.9 °F 61% 29.81 in 10.0 mi Calm Calm - N/A   Clear
3:53 AM 48.0 °F - 37.9 °F 68% 29.81 in 10.0 mi NE 4.6 mph - N/A   Clear
4:53 AM 46.9 °F - 37.9 °F 71% 29.82 in 10.0 mi NE 3.5 mph - N/A   Clear
5:53 AM 46.0 °F 42.5 °F 37.0 °F 71% 29.83 in 10.0 mi ENE 6.9 mph - N/A   Clear
6:53 AM 46.9 °F - 39.0 °F 74% 29.85 in 10.0 mi NE 6.9 mph - N/A   Clear
7:53 AM 48.9 °F - 39.9 °F 71% 29.86 in 10.0 mi East 11.5 mph - N/A   Clear
8:53 AM 53.1 °F - 42.1 °F 66% 29.86 in 10.0 mi ENE 15.0 mph 21.9 mph N/A   Clear
9:53 AM 55.0 °F - 41.0 °F 59% 29.86 in 10.0 mi East 16.1 mph - N/A   Clear
10:53 AM 57.9 °F - 41.0 °F 53% 29.85 in 10.0 mi East 17.3 mph 25.3 mph N/A   Clear
11:53 AM 62.1 °F - 42.1 °F 48% 29.85 in 10.0 mi East 18.4 mph 28.8 mph N/A   Clear
12:53 PM 64.9 °F - 43.0 °F 45% 29.81 in 10.0 mi East 20.7 mph 26.5 mph N/A   Clear
1:53 PM 68.0 °F - 44.1 °F 42% 29.77 in 10.0 mi ESE 20.7 mph 31.1 mph N/A   Clear
2:53 PM 66.9 °F - 44.1 °F 44% 29.76 in 10.0 mi East 16.1 mph 27.6 mph N/A   Mostly Cloudy
3:53 PM 69.1 °F - 45.0 °F 42% 29.74 in 10.0 mi ESE 15.0 mph 28.8 mph N/A   Mostly Cloudy
4:53 PM 69.1 °F - 43.0 °F 39% 29.72 in 10.0 mi ESE 21.9 mph 29.9 mph N/A   Overcast
5:53 PM 69.1 °F - 44.1 °F 40% 29.69 in 10.0 mi ESE 19.6 mph 32.2 mph N/A   Partly Cloudy
6:53 PM 66.9 °F - 44.1 °F 44% 29.68 in 10.0 mi ESE 17.3 mph 25.3 mph N/A   Clear
7:53 PM 64.9 °F - 43.0 °F 45% 29.68 in 10.0 mi ESE 19.6 mph 27.6 mph N/A   Clear
8:53 PM 62.1 °F - 42.1 °F 48% 29.70 in 10.0 mi ESE 17.3 mph 25.3 mph N/A   Clear
9:53 PM 61.0 °F - 39.9 °F 46% 29.73 in 10.0 mi ESE 16.1 mph 25.3 mph N/A   Mostly Cloudy
10:53 PM 57.9 °F - 39.0 °F 49% 29.72 in 10.0 mi ESE 16.1 mph 25.3 mph N/A   Overcast
11:53 PM 55.9 °F - 39.9 °F 55% 29.73 in 10.0 mi ESE 21.9 mph 31.1 mph N/A   Overcast